DAL9805 EGKK-KJFK

Flight info

Callsign DAL9805
Flight time N/A
Altitude 38000
Route DCT NOVMA L620 SAM N19 ADKIK DCT MOPAT DCT ERTER DCT LILNO DCT LIMRI/M081F390 NATF TUDEP/N0467F400 N520C TUSKY DCT PLYMM PARCH4
Aircraft A333/H-SDE3GHIJ2J3J5M1RVWXY/LB2D1

Departure

Time 2026-05-05 11:52
Airport London Gatwick Airport (EGKK)

Arrival

Time N/A
Airport John F. Kennedy International Airport (KJFK)
Time Latitude Longitude Altitude Speed Heading
2026-05-05 11:30 51.15609 -0.16785 217 ft 0 kts 168°
2026-05-05 11:38 51.15611 -0.16785 206 ft 3 kts 168°
2026-05-05 11:38 51.15629 -0.16791 216 ft 3 kts 168°
2026-05-05 11:38 51.15648 -0.16797 214 ft 3 kts 195°
2026-05-05 11:38 51.15665 -0.16782 219 ft 3 kts 240°
2026-05-05 11:39 51.15669 -0.16768 219 ft 0 kts 258°
2026-05-05 11:39 51.15669 -0.16769 219 ft 0 kts 258°
2026-05-05 11:40 51.15669 -0.16774 219 ft 1 kts 258°
2026-05-05 11:40 51.15668 -0.16781 219 ft 1 kts 258°
2026-05-05 11:40 51.15666 -0.16792 212 ft 1 kts 258°
2026-05-05 11:40 51.15665 -0.16805 213 ft 1 kts 258°
2026-05-05 11:41 51.15663 -0.16819 217 ft 1 kts 258°
2026-05-05 11:41 51.15662 -0.16826 219 ft 0 kts 258°
2026-05-05 11:41 51.15661 -0.16831 219 ft 1 kts 258°
2026-05-05 11:41 51.15658 -0.16854 214 ft 3 kts 258°
2026-05-05 11:42 51.15653 -0.16895 213 ft 5 kts 258°
2026-05-05 11:42 51.15646 -0.16953 212 ft 6 kts 259°
2026-05-05 11:42 51.15637 -0.17028 207 ft 8 kts 259°
2026-05-05 11:42 51.15625 -0.17124 210 ft 10 kts 259°
2026-05-05 11:43 51.15608 -0.17265 217 ft 17 kts 259°
2026-05-05 11:43 51.15553 -0.17463 217 ft 22 kts 240°
2026-05-05 11:43 51.15509 -0.17722 218 ft 27 kts 258°
2026-05-05 11:43 51.15468 -0.18044 211 ft 21 kts 258°
2026-05-05 11:44 51.15440 -0.18218 212 ft 18 kts 245°
2026-05-05 11:44 51.15412 -0.18257 214 ft 5 kts 203°
2026-05-05 11:44 51.15366 -0.18262 211 ft 8 kts 174°
2026-05-05 11:44 51.15289 -0.18242 215 ft 15 kts 171°
2026-05-05 11:45 51.15186 -0.18315 216 ft 21 kts 239°
2026-05-05 11:45 51.15152 -0.18549 210 ft 25 kts 257°
2026-05-05 11:45 51.15110 -0.18850 216 ft 31 kts 258°
2026-05-05 11:45 51.15070 -0.19133 212 ft 22 kts 248°
2026-05-05 11:46 51.14977 -0.19324 222 ft 22 kts 238°
2026-05-05 11:46 51.14916 -0.19592 215 ft 29 kts 255°
2026-05-05 11:46 51.14872 -0.19941 215 ft 35 kts 259°
2026-05-05 11:46 51.14816 -0.20351 213 ft 40 kts 258°
2026-05-05 11:47 51.14782 -0.20576 214 ft 3 kts 258°
2026-05-05 11:47 51.14778 -0.20611 210 ft 7 kts 259°
2026-05-05 11:47 51.14766 -0.20722 208 ft 0 kts 260°
2026-05-05 11:47 51.14761 -0.20756 207 ft 7 kts 257°
2026-05-05 11:48 51.14741 -0.20889 208 ft 0 kts 259°
2026-05-05 11:48 51.14741 -0.20892 216 ft 2 kts 259°
2026-05-05 11:48 51.14738 -0.20917 218 ft 4 kts 259°
2026-05-05 11:49 51.14728 -0.21006 214 ft 12 kts 260°
2026-05-05 11:49 51.14705 -0.21179 211 ft 19 kts 256°
2026-05-05 11:49 51.14634 -0.21317 214 ft 1 kts 187°
2026-05-05 11:50 51.14631 -0.21317 214 ft 1 kts 183°
2026-05-05 11:50 51.14621 -0.21316 214 ft 2 kts 173°
2026-05-05 11:50 51.14606 -0.21311 213 ft 2 kts 169°
2026-05-05 11:50 51.14582 -0.21300 212 ft 5 kts 160°
2026-05-05 11:51 51.14536 -0.21234 218 ft 14 kts 120°
2026-05-05 11:51 51.14532 -0.21063 215 ft 0 kts 79°
2026-05-05 11:51 51.14557 -0.20872 213 ft 49 kts 78°
2026-05-05 11:51 51.14677 -0.20032 211 ft 104 kts 77°
2026-05-05 11:52 51.14874 -0.18666 215 ft 147 kts 75°
2026-05-05 11:52 51.15120 -0.17122 580 ft 143 kts 74°
2026-05-05 11:52 51.15342 -0.15516 837 ft 156 kts 75°
2026-05-05 11:52 51.15568 -0.13772 1250 ft 163 kts 75°
2026-05-05 11:53 51.15810 -0.11929 1549 ft 179 kts 75°
2026-05-05 11:53 51.16490 -0.07842 2008 ft 215 kts 60°
2026-05-05 11:53 51.17457 -0.06022 2537 ft 218 kts 33°